Flag for Canada Weather past 2 weeks in Newmarket, Ontario, Canada

Now
61 °F

Partly sunny.


Feels Like: 61 °F
Forecast: N/A
Wind: 6 mph from South

Location: Borden

Current Time: Aug 2, 2015 at 7:13:46 PM

Latest Report: Aug 2, 2015 at 6:00 PM


Visibility: 9 mi

Pressure: 29.72 "Hg

Humidity: 94%

Dew point: 59 °F

Location of NewmarketLocation

Historic Weather in Newmarket — Graph

°F

Newmarket temperature yesterday

Maximum temperature yesterday: 81 °F (at 2:00 PM)
Minimum temperature yesterday: 55 °F (at 4:00 AM)
Average temperature yesterday: 67 °F

Past Weeks' High & Low Weather Summary

 TemperatureHumidityPressure
High93 °F (Jul 29, 5:00 PM)100% (Jul 20, 6:00 AM)30.04 "Hg (Jul 20, 6:00 AM)
Low45 °F (Jul 23, 4:00 AM)33% (Jul 30, 5:00 PM)29.62 "Hg (Jul 21, 2:00 AM)
Average71 °F68%29.86 "Hg
* Reported Jul 18 6:00 PM — Aug 2 6:00 PM, Newmarket, Weather by CustomWeather, © 2015

Note: Actual official high and low records may vary slightly from our data, if they occured in-between our weather recording intervals... More about our weather records

Advertising

Newmarket weather history for previous 24 hours

 ConditionsComfort  
Time TempWeatherWind HumidityBarometerVisibility
6:00 PM
Sun, Aug 2
61 °FPartly sunny.6 mph94%29.72 "Hg9 mi
5:03 PM59 °FDense fog.14 mph94%29.78 "Hg2 mi
4:00 PM70 °FPartly sunny.12 mph64%29.76 "Hg9 mi
3:00 PM86 °FSunny.15 mph35%29.71 "Hg9 mi
2:00 PM84 °FPassing clouds.14 mph35%29.74 "Hg9 mi
1:00 PM84 °FSunny.17 mph33%29.76 "Hg9 mi
12:00 PM82 °FSunny.17 mph35%29.78 "Hg9 mi
11:00 AM81 °FSunny.15 mph39%29.79 "Hg9 mi
10:00 AM77 °FSunny.14 mph47%29.82 "Hg9 mi
9:00 AM73 °FSunny.9 mph57%29.83 "Hg9 mi
8:00 AM64 °FSunny.2 mph78%29.83 "Hg9 mi
7:00 AM54 °FClear.No wind100%29.82 "Hg9 mi
6:00 AM52 °FClear.No wind100%29.81 "Hg9 mi
5:00 AM52 °FClear.No wind100%29.82 "Hg9 mi
4:00 AM52 °FPassing clouds.3 mph100%29.82 "Hg9 mi
3:00 AM55 °FPassing clouds.No wind88%29.82 "Hg9 mi
2:00 AM55 °FPassing clouds.No wind94%29.83 "Hg9 mi
1:00 AM55 °FPassing clouds.2 mph88%29.84 "Hg9 mi
12:00 AM57 °FPassing clouds.2 mph88%29.84 "Hg9 mi
11:00 PM
Sat, Aug 1
57 °FClear.No wind82%29.85 "Hg9 mi
10:00 PM61 °FClear.No wind77%29.85 "Hg9 mi
9:00 PM66 °FSunny.2 mph64%29.83 "Hg9 mi
8:00 PM75 °FPassing clouds.7 mph47%29.81 "Hg9 mi
7:00 PM75 °FScattered clouds.5 mph54%29.80 "Hg9 mi
Weather by CustomWeather, © 2015

See weather overviewHow to use our weather pages